Bitte die für das Benutzerkonto hinterlegte E-Mail-Adresse eingeben. Der Benutzername wird dann an diese E-Mail-Adresse geschickt.

 

 

WebCam

  
Kamera Halle
Kamera Vorfeld
Wetter EDDS

METAR

EDDS 250220Z VRB01KT CAVOK 05/02 Q1010 =
EDDS 242300Z 2500/2524 VRB02KT CAVOK BECMG 2509/2511 14008KT BECMG 2518/2520 25004KT TEMPO 2518/2520 25012KT


TAF

EDDS 242300Z 2500/2524 VRB02KT CAVOK BECMG 2509/2511 14008KT BECMG 2518/2520 25004KT TEMPO 2518/2520 25012KT =


SR/SS

04:12 / 18:26 UTC
(EDSO 25-04-2019)